Du Bois, PA

8:46 AM EST on November 23, 2017 (GMT -0500)
Du Bois-Jefferson County

Weather History for KDUJ - February, 2013

Change the Weather History Date:

Tuesday, February 5, 2013

  Actual Average Record
Temperature  
Mean Temperature 23 °F 25 °F  
Max Temperature 26 °F 32 °F 54 °F (2008)
Min Temperature 20 °F 17 °F -8 °F (2007)
Degree Days  
Heating Degree Days 42 40  
Month to date heating degree days 244 203  
Since 1 July heating degree days 3825 4147  
Cooling Degree Days 0 0  
Month to date cooling degree days 0 0  
Year to date cooling degree days 0 0  
Moisture  
Dew Point 20 °F    
Average Humidity 84    
Maximum Humidity 91    
Minimum Humidity 77    
Precipitation  
Precipitation 0.01 in 0.08 in 0.94 in (2008)
Month to date precipitation 0.05 0.40  
Sea Level Pressure  
Sea Level Pressure 29.84 in    
Wind  
Wind Speed 4 mph (WSW)    
Max Wind Speed 15 mph    
Max Gust Speed 20 mph    
Visibility 4 miles    
Events Fog , Snow    
T = Trace of Precipitation, MM = Missing Value Source: NWS Daily Summary

Daily Weather History Graph

Daily Weather History Graph

Search for Another Location

Airport or City:

Trip Planner

Search our weather history database for the weather conditions in past years. The results will help you decide how hot, cold, wet, or windy it might be!

Date:

Astronomy

Feb. 05, 2013 Rise Set
Actual Time 7:22 AM EST 5:37 PM EST
Civil Twilight 6:53 AM EST 6:06 PM EST
Nautical Twilight 6:20 AM EST 6:39 PM EST
Astronomical Twilight 5:48 AM EST 7:11 PM EST
Moon 3:03 AM EST (2/5) 12:52 PM EST (2/5)
Length of Visible Light 11h 13m
Length of Day
10h 15m
Waning Crescent, 27% of the Moon is Illuminated
Feb 5
Waning Crescent
Feb 10
New
Feb 17
First Quarter
Feb 25
Full
Mar 4
Last Quarter

Hourly Weather History & Observations

Time (EST) Temp. Windchill Dew Point Humidity Pressure Visibility Wind Dir Wind Speed Gust Speed Precip Events Conditions
12:56 AM 19.9 °F - 18.0 °F 92% 29.86 in 3.0 mi Calm Calm - N/A   Overcast
1:20 AM 19.4 °F - 17.6 °F 93% 29.77 in 2.5 mi Calm Calm - N/A   Overcast
1:38 AM 19.4 °F - 17.6 °F 93% 29.77 in 3.0 mi Calm Calm - N/A   Overcast
1:56 AM 19.9 °F - 18.0 °F 92% 29.85 in 4.0 mi Calm Calm - N/A   Overcast
2:56 AM 19.9 °F - 18.0 °F 92% 29.87 in 4.0 mi Calm Calm - N/A   Overcast
3:56 AM 19.9 °F - 18.0 °F 92% 29.86 in 5.0 mi Calm Calm - N/A   Overcast
4:56 AM 21.0 °F - 18.0 °F 88% 29.86 in 6.0 mi Calm Calm - N/A   Overcast
5:56 AM 19.9 °F - 18.0 °F 92% 29.88 in 5.0 mi Calm Calm - N/A   Overcast
6:56 AM 19.9 °F - 18.0 °F 92% 29.88 in 6.0 mi Calm Calm - N/A   Overcast
7:56 AM 19.9 °F - 18.0 °F 92% 29.90 in 4.0 mi Calm Calm - N/A   Overcast
8:56 AM 21.0 °F - 18.0 °F 88% 29.89 in 4.0 mi Calm Calm - N/A   Overcast
9:56 AM 21.9 °F 15.7 °F 18.0 °F 85% 29.89 in 4.0 mi SE 4.6 mph - N/A   Overcast
10:56 AM 23.0 °F - 19.0 °F 85% 29.89 in 4.0 mi Calm Calm - N/A   Overcast
11:56 AM 24.1 °F - 19.9 °F 84% 29.87 in 5.0 mi Calm Calm - N/A   Overcast
12:56 PM 25.0 °F 18.1 °F 19.9 °F 81% 29.84 in 6.0 mi WSW 5.8 mph - N/A   Haze
1:56 PM 25.0 °F 17.1 °F 21.0 °F 85% 29.83 in 4.0 mi WSW 6.9 mph - N/A   Overcast
2:56 PM 25.0 °F 19.3 °F 21.9 °F 88% 29.82 in 5.0 mi WSW 4.6 mph - N/A   Overcast
3:56 PM 26.1 °F 20.5 °F 21.9 °F 84% 29.82 in 4.0 mi WSW 4.6 mph - N/A   Overcast
4:31 PM 26.6 °F 19.1 °F 21.2 °F 80% 29.76 in 1.8 mi West 6.9 mph - N/A   Overcast
4:43 PM 24.8 °F 16.1 °F 23.0 °F 93% 29.77 in 0.5 mi West 8.1 mph - 0.00 in Fog , Snow Light Snow
4:54 PM 24.8 °F 16.1 °F 23.0 °F 93% 29.77 in 0.5 mi WSW 8.1 mph - 0.00 in Fog , Snow Light Snow
4:56 PM 25.0 °F 16.3 °F 23.0 °F 92% 29.84 in 0.5 mi WSW 8.1 mph - 0.00 in Fog , Snow Light Snow
5:18 PM 24.8 °F 16.1 °F 23.0 °F 93% 29.77 in 1.2 mi WSW 8.1 mph - 0.01 in Snow Light Snow
5:26 PM 24.8 °F 17.9 °F 23.0 °F 93% 29.77 in 1.2 mi WSW 5.8 mph - 0.01 in   Overcast
5:44 PM 24.8 °F 17.9 °F 23.0 °F 93% 29.77 in 1.2 mi West 5.8 mph - 0.01 in   Overcast
5:56 PM 25.0 °F 17.1 °F 23.0 °F 92% 29.84 in 2.0 mi WSW 6.9 mph - 0.01 in   Overcast
6:08 PM 24.8 °F 16.1 °F 23.0 °F 93% 29.77 in 4.0 mi WSW 8.1 mph - N/A   Overcast
6:21 PM 24.8 °F 16.9 °F 23.0 °F 93% 29.78 in 4.0 mi West 6.9 mph - N/A   Overcast
6:32 PM 24.8 °F 16.1 °F 23.0 °F 93% 29.78 in 4.0 mi West 8.1 mph - N/A   Overcast
6:56 PM 25.0 °F 16.3 °F 21.9 °F 88% 29.86 in 6.0 mi West 8.1 mph - N/A   Overcast
7:27 PM 24.8 °F 14.0 °F 21.2 °F 86% 29.80 in 7.0 mi West 11.5 mph - N/A   Overcast
7:56 PM 24.1 °F 12.5 °F 19.0 °F 81% 29.88 in 8.0 mi West 12.7 mph - N/A   Overcast
8:18 PM 23.0 °F 12.4 °F 17.6 °F 80% 29.82 in 8.0 mi West 10.4 mph - N/A   Scattered Clouds
8:56 PM 21.9 °F 11.0 °F 17.1 °F 82% 29.90 in 8.0 mi WSW 10.4 mph - N/A   Mostly Cloudy
9:56 PM 21.9 °F 12.5 °F 16.0 °F 78% 29.93 in 8.0 mi West 8.1 mph - N/A   Overcast
10:56 PM 21.9 °F 12.5 °F 16.0 °F 78% 29.92 in 8.0 mi West 8.1 mph - N/A   Mostly Cloudy
11:56 PM 21.0 °F 12.4 °F 17.1 °F 85% 29.91 in 5.0 mi WSW 6.9 mph - N/A   Overcast